[[{"header":{"parameterUnit":"m.s-1","parameterCategory":1,"la1":30.2991,"la2":30.254,"lo1":-89.0895,"lo2":-89.0444,"dy":0.0017,"dx":0.0017,"nx":28,"ny":28,"refTime":"2025-01-31T03:00:00:Z","depth":0,"parameterNumber":2,"parameterNumberName":"U-component_of_WINDS"},"data":[0,0,0,0,0,0,0,0,0,0,0,0,0,0,0,0,0,0,0,0,0,0,0,0,0,0,0,0,0,0,0,0,0,0,0,0,0,0,0,0,0,0,0,0,0,0,0,0,0,0,0,0,0,0,0,0,0,0,4.2525,4.2524,0,4.2493,4.2493,4.2492,4.2408,4.2406,4.2405,4.2403,4.237,4.2371,4.2372,0,0,0,0,0,0,0,0,0,0,0,0,0,4.2513,4.2514,4.2525,4.2524,4.2524,4.2493,4.2493,4.2492,4.2408,4.2406,4.2404,4.2402,4.237,4.2371,4.2372,0,0,0,0,0,0,0,0,0,0,0,0,0,4.2504,4.2514,4.2525,4.2478,4.2474,4.2493,4.2493,4.2492,4.2409,4.2406,4.2404,4.2401,4.2369,4.2371,4.2372,4.2433,0,0,4.2376,4.2376,0,0,0,0,0,0,0,0,4.2504,4.2504,4.2486,4.2482,4.2477,4.2452,4.2477,4.2472,4.241,4.2434,4.2403,4.24,4.2399,4.2398,4.2398,4.2432,4.243,4.2376,4.2376,4.2377,4.2377,0,0,0,0,0,0,0,4.2505,4.2505,4.2512,4.2485,4.248,4.246,4.2455,4.2475,4.2432,4.2431,4.2425,4.2423,4.2396,4.2397,4.2397,4.243,4.2376,4.2377,4.2377,4.2378,4.2515,4.2518,0,0,0,0,0,0,4.2513,4.2506,4.2513,4.2511,4.2484,4.2462,4.2457,4.2462,4.2432,4.2424,4.2425,4.2419,4.2396,4.2395,4.2395,4.2466,4.2377,4.2378,4.2379,4.2512,4.2515,4.2519,0,0,0,0,0,0,4.2513,4.2514,4.2514,4.2507,4.2506,4.2465,4.2472,4.2463,4.2464,4.2427,4.2419,4.2433,4.2394,4.2393,4.2425,4.2464,4.2379,4.238,4.2508,4.2513,4.2517,4.2609,0,0,0,0,0,0,4.2513,4.2514,4.2537,4.2508,4.2506,4.2545,4.2474,4.2465,4.2466,4.2458,4.2433,4.2426,4.2392,4.2424,4.2426,4.2464,4.2381,4.2505,4.251,4.2516,4.2602,4.2616,4.2628,0,0,0,0,0,4.2513,4.2564,4.2539,4.254,4.2534,4.2547,4.2546,4.2506,4.247,4.2492,4.2469,4.2427,4.2459,4.2428,4.243,4.2469,4.2502,4.2509,4.2515,4.2596,4.2613,4.2627,0,0,0,0,0,0,4.2597,4.2559,4.2531,4.2574,4.2565,4.2533,4.256,4.2525,4.2525,4.2517,4.2468,4.2463,4.2502,4.2488,4.2453,4.2528,4.2474,4.2481,4.2535,4.2551,4.2563,4.2566,4.2382,0,0,0,0,0,4.2621,4.2635,4.2601,4.2642,4.2639,4.2601,4.2605,4.2575,4.2564,4.2559,4.2538,4.2528,4.2536,4.2542,4.2548,4.26,4.2594,4.2628,4.2641,4.2651,4.2658,4.2686,4.2702,4.254,4.254,4.254,0,0,4.267,4.2651,4.2662,4.2659,4.2648,4.2664,4.2598,4.2617,4.2629,4.2562,4.2591,4.2575,4.2561,4.2604,4.2621,4.2594,4.2702,4.266,4.2668,4.2669,4.2695,4.271,4.2724,4.2545,4.2544,4.2543,0,0,4.2768,4.2754,4.2788,4.2779,4.2764,4.2739,4.2747,4.2722,4.2709,4.2737,4.2688,4.2701,4.2716,4.2709,4.2707,4.2805,4.2767,4.2808,4.2874,4.2902,4.2915,4.2926,4.2962,4.2976,4.2815,4.2815,4.2815,0,4.283,4.2853,4.281,4.2833,4.2834,4.2775,4.2809,4.2803,4.279,4.2792,4.2761,4.278,4.2766,4.2807,4.2832,4.2832,4.2841,4.281,4.2917,4.2928,4.2937,4.2971,4.2985,4.282,4.282,4.2819,4.2819,0,4.2931,4.2948,4.2977,4.2968,4.2972,4.3,4.2963,4.2972,4.2943,4.2921,4.2952,4.2933,4.2935,4.2942,4.2913,4.298,4.2964,4.2926,4.2871,4.2959,4.299,4.3002,4.2828,4.2826,4.2825,4.2823,0,0,4.308,4.3048,4.306,4.3056,4.3036,4.3048,4.3075,4.3077,4.3087,4.3081,4.3103,4.3118,4.3083,4.3082,4.3052,4.3076,4.3157,4.3035,4.3034,4.3059,4.3231,4.326,4.3276,4.3132,4.3134,4.3136,4.3233,0,4.3173,4.3217,4.3181,4.3232,4.3248,4.3193,4.3217,4.3208,4.3189,4.32,4.3178,4.3191,4.3143,4.3142,4.3164,4.3143,4.3191,4.3135,4.3152,4.3154,4.3158,4.3292,4.3322,4.3414,4.3244,4.3246,4.3248,0,4.3287,4.3288,4.3341,4.332,4.3325,4.3347,4.3347,4.3358,4.3347,4.3332,4.3331,4.3295,4.3321,4.3268,4.3303,4.3266,4.3271,4.3262,4.3265,4.3265,4.3206,4.3297,4.3442,4.3457,4.3266,4.3265,4.3264,0,4.3392,4.3406,4.344,4.3438,4.3414,4.3431,4.3422,4.3408,4.3413,4.3413,4.3416,4.3419,4.3421,4.3425,4.3391,4.3355,4.3432,4.3375,4.342,4.3421,4.3438,4.3438,4.3588,4.3441,4.3441,4.3441,4.344,0,4.35,4.3535,4.3487,4.3508,4.3546,4.3504,4.3543,4.3528,4.3518,4.3535,4.3488,4.3506,4.346,4.3473,4.3447,4.3481,4.3482,4.3471,4.3464,4.3475,4.3477,4.3478,4.3471,4.3444,4.3444,4.3443,4.3442,0,4.3623,4.3592,4.3626,4.3601,4.3596,4.3625,4.3604,4.3623,4.3602,4.3625,4.3628,4.3595,4.3608,4.3575,4.3583,4.3565,4.3615,4.3597,4.3619,4.3614,4.3661,4.3658,4.3818,4.3837,4.3678,4.3679,4.368,0,4.3694,4.372,4.3699,4.3708,4.3701,4.3716,4.3721,4.3681,4.3688,4.3679,4.37,4.3709,4.3715,4.3739,4.3715,4.3722,4.3704,4.376,4.3705,4.3717,4.3706,4.3705,4.3708,4.3771,4.3773,4.3775,4.3776,0,4.3824,4.3808,4.3817,4.3821,4.3829,4.383,4.3828,4.3838,4.3796,4.3806,4.382,4.3824,4.3834,4.3844,4.3846,4.3837,4.38,4.3794,4.3805,4.3817,4.3829,4.3825,4.3651,4.379,4.3789,4.3788,4.3787,4.3787,4.3924,4.3945,4.3934,4.3946,4.3941,4.394,4.3958,4.3939,4.395,4.3955,4.3931,4.395,4.3941,4.3939,4.3934,4.3949,4.3924,4.3939,4.3943,4.3948,4.3956,4.3827,4.3949,4.3949,4.3948,4.3948,4.3947,0,4.4052,4.4043,4.4054,4.4054,4.4064,4.4029,4.4026,4.4036,4.4054,4.4048,4.4056,4.4072,4.4083,4.4061,4.4069,4.4085,4.4069,4.4088,4.4087,4.4086,4.3978,4.3968,4.4102,4.4102,4.4102,4.4102,4.4102,4.4102,4.412,4.4155,4.4138,4.417,4.416,4.418,4.4181,4.4181,4.4176,4.4197,4.4206,4.4192,4.4181,4.4187,4.4196,4.4189,4.4195,4.4221,4.4208,4.4108,4.4093,4.4079,4.4069,4.4222,4.4222,4.4315,4.4316,4.4316]},{"header":{"parameterUnit":"m.s-1","parameterCategory":1,"la1":30.2991,"la2":30.254,"lo1":-89.0895,"lo2":-89.0444,"dy":0.0017,"dx":0.0017,"nx":28,"ny":28,"refTime":"2025-01-31T03:00:00:Z","depth":0,"parameterNumber":3,"parameterNumberName":"V-component_of_WINDS"},"data":[0,0,0,0,0,0,0,0,0,0,0,0,0,0,0,0,0,0,0,0,0,0,0,0,0,0,0,0,0,0,0,0,0,0,0,0,0,0,0,0,0,0,0,0,0,0,0,0,0,0,0,0,0,0,0,0,0,0,-1.5662,-1.5661,0,-1.5511,-1.5509,-1.5508,-1.5439,-1.5439,-1.5439,-1.544,-1.5272,-1.5267,-1.5263,0,0,0,0,0,0,0,0,0,0,0,0,0,-1.5881,-1.5878,-1.5662,-1.5661,-1.5659,-1.5511,-1.5509,-1.5507,-1.5439,-1.5439,-1.5439,-1.544,-1.5273,-1.5268,-1.5262,0,0,0,0,0,0,0,0,0,0,0,0,0,-1.5763,-1.5876,-1.5663,-1.5607,-1.5601,-1.5512,-1.5509,-1.5507,-1.5439,-1.5439,-1.544,-1.544,-1.5275,-1.5268,-1.5261,-1.5212,0,0,-1.524,-1.5237,0,0,0,0,0,0,0,0,-1.577,-1.5755,-1.5617,-1.5611,-1.5604,-1.5495,-1.5525,-1.5407,-1.5439,-1.55,-1.544,-1.544,-1.5345,-1.5332,-1.5303,-1.5205,-1.5197,-1.524,-1.5235,-1.5232,-1.523,0,0,0,0,0,0,0,-1.5779,-1.5761,-1.5602,-1.5615,-1.5607,-1.5586,-1.557,-1.5502,-1.5422,-1.5495,-1.5489,-1.5473,-1.5341,-1.531,-1.5298,-1.5195,-1.524,-1.5234,-1.5229,-1.5227,-1.505,-1.5049,0,0,0,0,0,0,-1.5797,-1.5769,-1.5607,-1.5598,-1.569,-1.5582,-1.5564,-1.5529,-1.5423,-1.5407,-1.5473,-1.547,-1.5321,-1.5306,-1.5292,-1.5228,-1.5232,-1.5226,-1.5222,-1.505,-1.5049,-1.5049,0,0,0,0,0,0,-1.5802,-1.5784,-1.5613,-1.5682,-1.5659,-1.5578,-1.5539,-1.5526,-1.5494,-1.5407,-1.5391,-1.5456,-1.5321,-1.5302,-1.5234,-1.5221,-1.5223,-1.5216,-1.5051,-1.505,-1.5049,-1.51,0,0,0,0,0,0,-1.5809,-1.5786,-1.5769,-1.5682,-1.5655,-1.5561,-1.5539,-1.5523,-1.5484,-1.5479,-1.5387,-1.5372,-1.532,-1.5245,-1.5227,-1.5212,-1.5211,-1.5051,-1.505,-1.5049,-1.5099,-1.5101,-1.5103,0,0,0,0,0,-1.5817,-1.5786,-1.5768,-1.5749,-1.5633,-1.556,-1.5544,-1.5489,-1.5484,-1.5464,-1.5408,-1.5374,-1.5226,-1.5238,-1.5218,-1.52,-1.5052,-1.5051,-1.5049,-1.5098,-1.5101,-1.5103,0,0,0,0,0,0,-1.5868,-1.5774,-1.5753,-1.5694,-1.5637,-1.5549,-1.5523,-1.5493,-1.5433,-1.543,-1.536,-1.534,-1.5278,-1.5232,-1.5247,-1.5148,-1.5136,-1.5131,-1.518,-1.5182,-1.5184,-1.5195,-1.5205,0,0,0,0,0,-1.5874,-1.5827,-1.5745,-1.57,-1.5673,-1.5604,-1.5569,-1.5533,-1.5468,-1.5442,-1.5381,-1.5316,-1.5255,-1.5216,-1.5154,-1.5093,-1.5071,-1.5071,-1.5073,-1.5075,-1.507,-1.5035,-1.5034,-1.5045,-1.5045,-1.5045,0,0,-1.5882,-1.5825,-1.5798,-1.5709,-1.566,-1.561,-1.5583,-1.553,-1.5491,-1.5432,-1.5366,-1.5319,-1.5242,-1.5178,-1.5146,-1.5137,-1.5063,-1.5073,-1.5076,-1.507,-1.5033,-1.5032,-1.5032,-1.5044,-1.5044,-1.5045,0,0,-1.5872,-1.5825,-1.5784,-1.5737,-1.5665,-1.5619,-1.561,-1.5527,-1.5495,-1.5429,-1.5384,-1.5335,-1.5231,-1.5179,-1.5138,-1.5112,-1.5079,-1.5094,-1.5103,-1.5069,-1.5068,-1.5067,-1.5058,-1.5055,-1.509,-1.509,-1.509,0,-1.5891,-1.5817,-1.5765,-1.5716,-1.5678,-1.5628,-1.5584,-1.5539,-1.5449,-1.5422,-1.5415,-1.5286,-1.523,-1.5153,-1.5148,-1.5116,-1.5101,-1.5103,-1.5074,-1.5072,-1.507,-1.506,-1.5056,-1.5093,-1.5092,-1.5092,-1.5092,0,-1.5844,-1.5793,-1.5768,-1.5688,-1.5647,-1.56,-1.5538,-1.5502,-1.5469,-1.5423,-1.5355,-1.5288,-1.5213,-1.5192,-1.5157,-1.511,-1.5107,-1.5088,-1.5074,-1.5072,-1.5061,-1.5057,-1.5096,-1.5095,-1.5094,-1.5094,0,0,-1.5859,-1.5755,-1.5746,-1.571,-1.5629,-1.5586,-1.5537,-1.5469,-1.5439,-1.5379,-1.5334,-1.525,-1.5232,-1.5187,-1.5145,-1.5116,-1.51,-1.51,-1.5097,-1.5102,-1.5043,-1.5059,-1.5055,-1.5078,-1.5077,-1.5077,-1.505,0,-1.5838,-1.5753,-1.5705,-1.5638,-1.5591,-1.5544,-1.55,-1.5444,-1.5401,-1.5351,-1.53,-1.5242,-1.5223,-1.5196,-1.5165,-1.5109,-1.5087,-1.511,-1.5033,-1.5031,-1.5054,-1.505,-1.5064,-1.5043,-1.5045,-1.5045,-1.5044,0,-1.5802,-1.5749,-1.5679,-1.5605,-1.5583,-1.5546,-1.548,-1.5434,-1.5368,-1.5338,-1.529,-1.525,-1.5194,-1.5186,-1.5106,-1.5123,-1.5089,-1.5057,-1.5054,-1.5044,-1.5037,-1.5039,-1.5034,-1.5031,-1.5037,-1.5038,-1.5038,0,-1.5821,-1.5731,-1.5678,-1.5648,-1.5561,-1.5536,-1.5497,-1.5433,-1.5395,-1.5336,-1.5311,-1.5244,-1.5208,-1.5156,-1.5098,-1.5098,-1.5024,-1.5011,-1.4995,-1.4997,-1.498,-1.4982,-1.497,-1.496,-1.496,-1.496,-1.496,0,-1.5802,-1.576,-1.5686,-1.5653,-1.5605,-1.5549,-1.5502,-1.5459,-1.5403,-1.5358,-1.5312,-1.527,-1.5198,-1.5146,-1.51,-1.5041,-1.5024,-1.4997,-1.4985,-1.5001,-1.5004,-1.4976,-1.4976,-1.4959,-1.4959,-1.4959,-1.4959,0,-1.5814,-1.5762,-1.5702,-1.5626,-1.5606,-1.5574,-1.5507,-1.5471,-1.5427,-1.5372,-1.5355,-1.5283,-1.5221,-1.5159,-1.5073,-1.5043,-1.4984,-1.4968,-1.5008,-1.5001,-1.4988,-1.499,-1.4957,-1.495,-1.4946,-1.4946,-1.4946,0,-1.5805,-1.5773,-1.5696,-1.5665,-1.563,-1.558,-1.5544,-1.5487,-1.545,-1.5375,-1.5348,-1.5284,-1.5229,-1.5131,-1.5068,-1.5003,-1.4984,-1.4978,-1.4974,-1.4991,-1.4984,-1.4987,-1.4983,-1.4979,-1.4979,-1.498,-1.498,0,-1.5795,-1.5772,-1.5723,-1.5666,-1.5625,-1.5575,-1.5524,-1.55,-1.5433,-1.5393,-1.5332,-1.529,-1.5206,-1.5141,-1.5069,-1.5025,-1.499,-1.4982,-1.4975,-1.499,-1.5015,-1.5001,-1.5012,-1.4983,-1.4982,-1.4982,-1.4982,-1.4982,-1.5795,-1.5766,-1.5708,-1.5655,-1.5612,-1.5566,-1.553,-1.5483,-1.5432,-1.5363,-1.5332,-1.5269,-1.5204,-1.5105,-1.5062,-1.501,-1.5001,-1.4991,-1.4988,-1.4986,-1.499,-1.5025,-1.4997,-1.4996,-1.4996,-1.4996,-1.4996,0,-1.5782,-1.5744,-1.5697,-1.5629,-1.5588,-1.5565,-1.5507,-1.5472,-1.542,-1.5365,-1.5314,-1.5243,-1.5181,-1.5116,-1.5049,-1.502,-1.5003,-1.5005,-1.5005,-1.4996,-1.5001,-1.5015,-1.502,-1.502,-1.502,-1.502,-1.502,-1.502,-1.5771,-1.572,-1.5691,-1.5617,-1.5577,-1.552,-1.549,-1.5446,-1.5402,-1.5327,-1.5278,-1.5237,-1.5177,-1.5107,-1.5048,-1.503,-1.5007,-1.5014,-1.4991,-1.4997,-1.4995,-1.4994,-1.5006,-1.5009,-1.5009,-1.499,-1.4989,-1.4989]}]]